Radar Calibration
NORAD ID: 2909
Int'l Code: 1967-053J
Perigee: 726.7 km
Apogee: 730.2 km
Inclination: 70.0 °
Period: 99.2 minutes
Semi major axis: 7099 km
Launch date: May 31, 1967
Source: United States (US)
Two Line Element Set (TLE):
1 02909U 67053J 13168.45755487 .00001200 00000-0 31645-3 0 1284
2 02909 069.9519 172.2096 0002461 001.9425 358.1718 14.51341807384521
Source:
NASA's NSSDC Master Catalog entry for SURCAL 150B